Погода в Кислокане

Погода в Кислокане : погода сейчас, прогноз погоды и архив. Всё, что Вы хотите узнать о погоде в Кислокане!

Поиск расширенной информации на нашем сайте:

Другие новости

Новости СМИ2

Главная страница сайта

Новости сайта

03.07.2017

Напоминаем, что на нашем специализированном сайте Метеоцентр.Азия вы можете получить высокодетализированные автоматические прогнозы погоды по пунктам России, СНГ и мира в авиационном формате (включающие направление и скорость ветра, видимость, явления погоды, количество и форму облачности, нижнюю и верхнюю границу облачности).


Погода в Кислокане - сегодня

Время (UTC), дата Ветер
(°,м/с) 
Видим.   Явления Облачность Т
(°С)
Тd
(°С)
f(%) Тe
(°С)
Pmin
(гПа)
dP
(гПа)
Po
(мм)
O2
(г/м3)
Тmin Tmax R s Состояние
почвы
09 26.07.17 010 (С) 20000 м  гроза без осадков  10/10 600 м кучево-дожд. 
[Cb cap]
+27.5 +10.8 35 +30  1001.5  -1.6  733  267           
12 26.07.17 280 (З) 20000 м  гроза без осадков{ливн. осадки}  10/10 600 м кучево-дожд. 
[Cb cap]
+23 +9.3 42 +24  1002.7  0.8  734  271    +28.6  0.3     
15 26.07.17 320 (СЗ) 2{13}  н/о  слаб. ливневой дождь, в посл. час гроза  9/9 600 м кучево-дожд. 
[Cb cap]
+16.6 +13 79 +23  1002.7  -0.5  734  276           
18 26.07.17 090 (В) н/о  в посл. час ливневой дождь{гроза}  8/5 600 м кучево-дожд., верхняя 
[Cb cap|Ci sp]
+13.8 +13.1 96 +21  1004  734  279           
21 26.07.17 030 (СВ) 0500 м  туман  4/4 1000 м 
[Sc]
+10.1 +9.9 99 +12  1005  0.7  735  284           
00 27.07.17 тихо ()   4000 м  дымка{туман}  10/4 1000 м верхняя 
[Sc|Ci sp]
+13.4 +12.9 97 +19  1005.5  0.8  736  280  +7.9       
03 27.07.17 тихо ()   20000 м    5/3 1000 м верхняя 
[Sc|Ci sp]
+20.3 +15.4 73 +30  1004.5  -0.4  735  272           
06 27.07.17 100 (В) 20000 м    9/9 1000 м 
[Cu Sc]
+25 +13.2 48 +31  1003.5  -0.6  735  269           
09 27.07.17 350 (С) 20000 м    8/8 1000 м 
[Cu Sc]
+25.6 +12.7 45 +31  1003.1  -0.4  734  268           
12 27.07.17 040 (СВ) 20000 м    6/3 1000 м верхняя 
[Cu Sc|Ci sp]
+23.2 +12.8 52 +29  1004.4  1.2  735  271    +26.7       
15 27.07.17 050 (СВ) н/о    8/6 1000 м верхняя 
[Sc|Ci sp]
+15 +10.5 74 +17  1008.5  3.2  738  280           
18 27.07.17 020 (С) н/о    9/9 1000 м 
[Sc]
+12.2 +9.2 82 +13  1009.5  0.8  738  283           
21 27.07.17 020 (С) 20000 м  в посл. час ливневой дождь  10/5 600 м кучево-дожд., средняя, верхняя 
[Cb cap|Ac trans|Ci sp]
+10.8 +9.4 91 +12  1010.9  1.3  739  285           
00 28.07.17 070 (В) 20000 м  {ливн. осадки}  9/9 600 м кучево-дожд. 
[Cb cap]
+11.2 +8.6 84 +12  1012  1.1  740  285  +10.5    0.7     
03 28.07.17 170 (Ю) 10 км  дым  10/8 1000 м верхняя 
[Sc|Ci sp]
+14.1 +9 71 +15  1012.2  0.4  740  282           
06 28.07.17 170 (Ю) 20000 м  дым  8/4 600 м кучево-дожд., верхняя 
[Cb cap|Ci sp]
+17.9 +9.3 57 +20  1012.3  0.3  741  278           
09 28.07.17 190 (Ю) 20000 м  дым  8/4 600 м кучево-дожд., верхняя 
[Cb cap|Ci sp]
+20.4 +7.6 44 +20  1011.7  -0.3  741  276           
12 28.07.17 230 (ЮЗ) 20000 м    6/4 1000 м верхняя 
[Sc|Ci fib]
+17.8 +10.8 64 +20  1012.4  0.3  741  278    +20.6       
15 28.07.17 180 (Ю) н/о    10/6 1000 м средняя, верхняя 
[Sc|Ac trans|Ci sp]
+14.4 +10.2 76 +17  1013.6  742  282           
18 28.07.17 140 (ЮВ) н/о    10/9 600 м верхняя 
[Sc|Ci sp]
+11.6 +9.6 88 +13  1014.1  0.2  742  285           
21 28.07.17 140 (ЮВ) 20000 м    10/8 600 м кучево-дожд., верхняя 
[Cb cap|Ci sp]
+11.8 +9.2 84 +12  1013.6  -0.5  741  285           
00 29.07.17 170 (Ю) 20000 м    10/8 600 м кучево-дожд., верхняя 
[Cb cap|Ci sp]
+13.4 +9.3 76 +14  1012.6  -0.8  741  283  +11.4         
03 29.07.17 170 (Ю) 20000 м    8/4 600 м верхняя 
[Cu Sc|Ci sp]
+18 +9.2 56 +18  1010.3  -1.8  739  278           
06 29.07.17 180 (Ю) 20000 м    10/4 600 м кучево-дожд., верхняя 
[Cb cap|Ci sp]
+21.5 +10.4 49 +24  1007.9  -2.1  738  274           
09 29.07.17 180 (Ю) 20000 м    10/10 600 м кучево-дожд. 
[Cb cap]
+20.4 +10.7 54 +23  1005.9  -2  736  274           
Время (UTC), дата Ветер
(°,м/с) 
Видим.   Явления Облачность Т
(°С)
Тd
(°С)
f(%) Тe
(°С)
Pmin
(гПа)
dP
(гПа)
Po
(мм)
O2
(г/м3)
Тmin Tmax R s Состояние
почвы

Для получения пояснительной информации подведите курсор к названию столбца.

ПОГОДА в Кислокане - архив

Всё, что Вы хотите узнать о погоде в Кислокане - удобно и подробно!

Выберите нужную дату (начиная с 1 января 2015* года) и нажмите кнопку "Найти".
Будут отображены архивные сводки погоды по пункту Кислокан, начиная с указанной даты.


Отображать данные в формате CSV (для использования в таблицах Excel)


Внимание! Наш архив погоды предназначен исключительно для личного некоммерческого использования в познавательных целях. Если Вам необходимы официальные справки о состоянии погоды (для производственных, юридических, коммерческих и т.п. целей), обращайтесь в органы Росгидромета.

*Примечание: данная дата относится к архиву по метеостанциям СССР (Россия, СНГ, Балтия).
Архив по метеостанциям Зарубежной Европы и Азии (кроме Китая) хранится 10 дней, по другим регионам земного шара (Китай, Африка, Америка, Австралия, Океания) - 1 день.

Кислокан - район местоположения метеостанции


Название, широта, долгота, высота метеостанции:
Кислокан 63.6°ш. 104°д. 209 м над ур. моря [Российская Федерация]

Дополнительная информация

В oтличие oт бoльшинства пoгoдных сайтoв мы публикуем пoдрoбную метеoинфoрмацию в детальнoм прoфессиoнальнoм фoрмате.

Характеристики температуры и влажнoсти вoздуха измеряются на высoте 2 м в тени вдали oт зданий и деревьев.
Скoрoсть ветра измеряется на высoте 10 м (на урoвне рoста челoвека скoрoсть ветра ниже в 1.5-2 раза). Если метеoстанция нахoдится в гoрoде или в лесу, тo скoрoсть ветра занижена на 2-4 м/с пo сравнению с oткрытым местoм. Скoрoсть ветра над акватoриями крупных рек и oзёр, а также на вершинах хoлмoв на 2-5 м/с выше, чем в oбычных услoвиях.
Атмoсфернoе давление в разных тoчках местнoсти мoжет значительнo oтличаться oт давления на метеoстанции, в зависимoсти oт услoвий рельефа (при пoдъёме на 10 м давление пoнижается примернo на 1 мм рт.ст.).